Regional Weather Roundup
Issued by NWS State College, PA

Home | Current Version | Previous Version | Text Only | Print | Product List | Glossary Off
Versions: 1 2 3 4 5 6 7 8 9 10 11 12 13 14 15 16 17 18 19 20 21 22 23 24 25 26 27 28 29 30 31 32 33 34 35 36 37 38 39 40 41 42 43 44 45 46 47 48 49 50

000
ASUS41 KCTP 311110
RWRCTP

REGIONAL WEATHER ROUNDUP
NATIONAL WEATHER SERVICE STATE COLLEGE PA
700 AM EDT TUE MAY 31 2016

Note: "fair" indicates few or no clouds below 12,000 feet with no
significant weather and/or obstructions to visibility.

* = STATION THAT DOES NOT REPORT PRECIPITATION /E.G. RAIN...SNOW...ETC/
    THUNDER OR FOG.

PAZ002>004-007>009-013>016-020>023-029>032-311200-
WESTERN PENNSYLVANIA

CITY           SKY/WX    TMP DP  RH WIND       PRES   REMARKS
ERIE           MOSUNNY   65  59  81 CALM      30.02R
MEADVILLE      SUNNY     58  55  90 CALM      30.03R
FRANKLIN*      SUNNY     54  52  94 CALM      30.06R
NEW CASTLE     FAIR      57  55  93 CALM      30.03R
BEAVER COUNTY  MOSUNNY   64  54  68 CALM      30.02
BUTLER*        SUNNY     55  54  94 CALM      30.05R
PITTSBURGH INT MOSUNNY   62  56  80 CALM      30.01R
PITTSBURGH     MOSUNNY   63  58  83 CALM      30.01R
INDIANA*       SUNNY     57  55  94 CALM      30.06R
LATROBE        SUNNY     57  57 100 CALM      30.04R
WASHINGTON CO* PTSUNNY   55  54  94 CALM      30.03R
$$

PAZ004>006-010>012-017>019-024>028-033>037-041-042-045-046-049>053-311200-
CENTRAL PENNSYLVANIA

CITY           SKY/WX    TMP DP  RH WIND       PRES   REMARKS
BRADFORD       MOSUNNY   52  49  89 CALM      30.05R
DUBOIS         MOSUNNY   57  52  83 E3        30.03R
CLEARFIELD     FOG       54  52  93 CALM      30.05R VSB 1/4
JOHNSTOWN      SUNNY     61  53  75 CALM      30.05R
ALTOONA        SUNNY     60  57  89 CALM      30.04R
STATE COLLEGE  CLOUDY    59  57  94 CALM      30.03R
WILLIAMSPORT   CLOUDY    63  61  93 W3        30.00R FOG
SELINSGROVE    FOG       63  62  97 CALM      30.01R VSB 1/4
FT INDIANTOWN  MOSUNNY   63  63 100 CALM      29.98R FOG
CAPITAL CITY   CLOUDY    67  65  93 W3        29.99R FOG
HARRISBURG     FOG       66  64  93 N7        29.98R VSB 1/4
YORK           SUNNY     66  65  96 CALM      29.98R FOG
$$

PAZ038>040-043-044-047-048-054-055-060>062-067>071-311200-
EASTERN PENNSYLVANIA

CITY           SKY/WX    TMP DP  RH WIND       PRES   REMARKS
SCRANTON       CLOUDY    61  60  97 SE3       30.01R FOG
MOUNT POCONO   SUNNY     61  53  75 N5        30.01R
ALLENTOWN      CLOUDY    66  63  90 SW3       29.97R
QUAKERTOWN*    CLOUDY    66  64  94 CALM      29.98S
READING        SUNNY     66  63  90 CALM      29.97R FOG
LANCASTER      SUNNY     65  65 100 CALM      29.98R FOG
COATESVILLE    SUNNY     68  66  94 CALM      29.99R
POTTSTOWN      MOSUNNY   67  65  93 NW3       29.98R
BLUE BELL      PTSUNNY   68  64  88 CALM      29.96R
DOYLESTOWN     MOSUNNY   68  64  87 NW3       29.96R
WILLOW GROVE   NOT AVBL
NORTH PHILA    CLOUDY    72  67  84 W3        29.97R
PHILADELPHIA   PTSUNNY   70  67  90 W6        29.96R
$$




USA.gov is the U.S. government's official web portal to all federal, state and local government web resources and services.